Location: Cabeza Gorda
(40.0667°N, 4.9667°W)
Time: 19:22:05
(UTC+00:00)

AQUARIUS - Pass Details

Date: 15 January 2026
Orbit: 633 x 636 km, 98.0° (Epoch: 11 February)

Event Time Altitude Azimuth Distance (km) Brightness Sun altitude
Rises 06:59:33 0° 13° (NNE) 2,940 7.5 -7.9°
Reaches altitude 10° 07:01:46 10° 14° (NNE) 2,026 6.6 -7.5°
Maximum altitude 07:06:11 82° 103° (ESE) 645 4.3 -6.7°
Drops below altitude 10° 07:10:34 10° 191° (S) 2,010 6.8 -6.0°
Sets 07:12:45 0° 192° (SSW) 2,913 7.7 -5.6°
